TimeEDT,TemperatureF,Dew PointF,Humidity,Sea Level PressureIn,VisibilityMPH,Wind Direction,Wind SpeedMPH,Gust SpeedMPH,PrecipitationIn,Events,Conditions,WindDirDegrees,DateUTC
12:52 AM,41.0,36.0,82,29.67,10.0,WNW,13.8,-,0.00,Rain,Light Rain,290,2012-10-31 04:52:00
1:52 AM,39.9,36.0,86,29.66,10.0,WNW,13.8,-,0.00,,Overcast,290,2012-10-31 05:52:00
2:52 AM,39.9,36.0,86,29.67,10.0,West,20.7,25.3,N/A,,Overcast,280,2012-10-31 06:52:00
3:52 AM,39.9,36.0,86,29.68,10.0,West,13.8,-,N/A,,Overcast,280,2012-10-31 07:52:00
4:52 AM,39.9,36.0,86,29.68,10.0,West,15.0,-,N/A,,Overcast,270,2012-10-31 08:52:00
5:32 AM,39.2,37.4,93,29.68,4.0,West,12.7,-,0.01,Rain,Light Rain,280,2012-10-31 09:32:00
5:52 AM,39.0,36.0,89,29.69,6.0,West,15.0,21.9,0.01,Rain,Light Rain,280,2012-10-31 09:52:00
6:45 AM,39.2,35.6,87,29.70,5.0,WNW,12.7,-,0.03,Rain,Light Rain,290,2012-10-31 10:45:00
6:52 AM,39.0,36.0,89,29.71,4.0,WNW,17.3,21.9,0.04,Rain,Light Rain,290,2012-10-31 10:52:00
7:52 AM,37.9,35.1,89,29.72,7.0,West,12.7,-,0.00,Rain,Light Rain,280,2012-10-31 11:52:00
8:52 AM,37.9,34.0,86,29.73,8.0,West,15.0,-,0.00,,Overcast,280,2012-10-31 12:52:00
9:52 AM,39.0,34.0,82,29.74,10.0,West,13.8,-,0.00,Rain,Light Rain,280,2012-10-31 13:52:00
10:52 AM,39.9,34.0,79,29.74,10.0,West,16.1,-,0.00,Rain,Light Rain,280,2012-10-31 14:52:00
11:52 AM,41.0,34.0,76,29.75,10.0,WNW,18.4,23.0,0.00,,Overcast,300,2012-10-31 15:52:00
12:52 PM,42.1,34.0,73,29.75,10.0,WNW,13.8,23.0,N/A,,Overcast,300,2012-10-31 16:52:00
2:52 PM,42.1,34.0,73,29.76,9.0,West,19.6,-,0.00,Rain,Light Rain,270,2012-10-31 18:52:00
3:52 PM,41.0,36.0,82,29.77,8.0,West,13.8,-,0.01,Rain,Light Rain,270,2012-10-31 19:52:00
4:25 PM,41.0,37.4,87,29.76,9.0,West,9.2,-,0.01,Rain,Light Rain,260,2012-10-31 20:25:00
4:44 PM,41.0,35.6,81,29.77,9.0,West,13.8,18.4,0.01,Rain,Light Rain,270,2012-10-31 20:44:00
4:52 PM,42.1,37.0,82,29.78,10.0,West,15.0,-,0.01,Rain,Light Rain,270,2012-10-31 20:52:00
5:52 PM,41.0,35.1,79,29.80,10.0,WNW,16.1,-,0.00,Rain,Light Rain,290,2012-10-31 21:52:00
6:15 PM,39.2,35.6,87,29.80,9.0,WNW,11.5,-,0.00,Rain,Light Rain,290,2012-10-31 22:15:00
6:52 PM,39.9,35.1,83,29.81,10.0,West,10.4,-,0.00,Rain,Light Rain,280,2012-10-31 22:52:00
7:52 PM,39.9,34.0,79,29.82,10.0,West,8.1,-,0.00,,Overcast,280,2012-10-31 23:52:00
8:52 PM,39.9,34.0,79,29.83,10.0,West,9.2,-,0.00,,Overcast,270,2012-11-01 00:52:00
9:52 PM,39.9,34.0,79,29.84,10.0,West,6.9,-,0.00,,Overcast,270,2012-11-01 01:52:00
10:52 PM,41.0,32.0,70,29.84,10.0,West,10.4,-,N/A,,Overcast,280,2012-11-01 02:52:00
11:52 PM,41.0,33.1,73,29.84,10.0,NW,9.2,-,N/A,,Overcast,310,2012-11-01 03:52:00